User: anonymous   Login
Location: Bouchavesnes-Bergen
(49.9859°N, 2.9203°E)
Time: 11:29:40
(UTC+00:00)
Language:

FENGYUN 1C DEB - Orbit

View from above orbital plane
View from above orbital plane
View from above satellite
View from above satellite

Ground track
Ground track

The orbit data is extracted from the following two-line orbital elements,

1 29847U 99025ER  21269.87955157 -.00000118  00000-0 -48017-4 0  9998
2 29847  98.8920 283.0456 0084346   2.9835 115.9260 14.01519745751844
Epoch (UTC): 26 September 2021 21:06:33
Eccentricity: 0.0084346
inclination: 98.8920°
perigee height: 827 km
apogee height: 950 km
right ascension of ascending node: 283.0456°
argument of perigee: 2.9835°
revolutions per day: 14.01519745
mean anomaly at epoch: 115.9260°
orbit number at epoch: 75184

The dashed part of the orbit path shows where the satellite is in the earth's shadow,  

DLR